Torna al catalogo

STARLINK-31765

AttivoComunicazioniVLEO
NORAD 59604·PAYLOAD·🇺🇸 United States

Lanciato Apr 28, 2024 da Cape Canaveral Space Force Station

Loading…

Prossimi Passaggi (prossime 24 ore)

TLE

AggiornatoSource: CelesTrak SupGP

Epoca: Sep 14, 2026, 14:49 UTC

1 59604C 24080D   26257.61784722 -.00037097  00000+0 -13438-2 0  2572
2 59604  43.0024  47.3875 0001179 266.6056 246.3624 15.27592663    16

Traccia STARLINK-31765 in tempo reale con AllMySat

Download on the App Store